Meteo Giornale » Osservazioni meteo Italia » Treviso-S Angelo

ore: 04:50 - Osservazioni Meteo Treviso-S Angelo
Lat. 45° 39' N Lon. 12° 11' E Alt. 18 metri s.l.m.

sereno Europe/Rome

19 °C

Sereno

Temp. 24 Ore

19 °C

29 °C

Nord

3.7 Km/h

Dew point 17 °C

Umidità 88 %

Visibilità  10 Km

Il sole sorge alle ore 05:48

Il sole tramonta alle ore 20:46

Data e Ora Cielo e Fenomeni T °C DP °C Um. % Pres. hPa Vis. km Vento km/h
Oggi h: 04:50 sereno Sereno 19 17 88 1014 10 N 3.7
Oggi h: 04:20 sereno Sereno 19 18 93 1014 10 N 3.7
Oggi h: 03:50 sereno Sereno 19 18 93 1014 10 N 1.8
Oggi h: 03:20 sereno Sereno 19 18 93 1015 10 N 1.8
Oggi h: 02:50 sereno Sereno 20 18 88 1015 10 N 3.7
Oggi h: 02:20 sereno Sereno 20 18 88 1015 10 N 3.7
Oggi h: 01:50 sereno Sereno 20 18 88 1015 10 N 5.5
Oggi h: 01:20 poco_nuvoloso Poco Nuvoloso 20 18 88 1015 10 N 5.5
Oggi h: 00:50 poco_nuvoloso Poco Nuvoloso 20 19 93 1015 10 N 5.5
Oggi h: 00:20 nuvoloso Nuvoloso 20 18 88 1015 10 N 5.5
Ieri h: 23:50 sereno Sereno 20 19 93 1015 10 N 5.5
Ieri h: 23:20 sereno Sereno 20 18 88 1015 10 N 1.8
Ieri h: 22:50 sereno Sereno 21 19 88 1015 10 N 5.5
Ieri h: 22:20 poco_nuvoloso Poco Nuvoloso 20 19 93 1015 10 N 7.4
Ieri h: 21:50 poco_nuvoloso Poco Nuvoloso 21 18 82 1015 10 N 5.5
Ieri h: 21:20 poco_nuvoloso Poco Nuvoloso 21 18 82 1015 10 NE 9.3
Ieri h: 20:50 poco_nuvoloso Poco Nuvoloso 21 18 82 1015 10 NE 7.4
Ieri h: 20:20 coperto_pioggia Pioggia Debole 20 18 88 1015 10 E/NE 9.3
Ieri h: 19:50 coperto_pioggia Pioggia Debole 20 18 88 1016 10 N 5.5
Ieri h: 19:20 nuvoloso_temporali Temporale con Pioggia Debole 19 18 93 1016 10 N 5.5
Ieri h: 18:50 nuvoloso_temporali Temporale con Pioggia 19 17 88 1018 4 O 25.9
Ieri h: 18:20 nuvoloso_piovaschi Rovescio di Pioggia 23 16 64 1018 3 O 42.6
Ieri h: 17:50 nuvoloso Nuvoloso 28 21 65 1015 10 E/NE 11.1
Ieri h: 17:20 nuvoloso Nuvoloso 28 22 69 1015 10 E/NE 13
Ieri h: 16:50 nuvoloso Nuvoloso 29 21 62 1014 10 E 14.8
Ieri h: 16:20 poco_nuvoloso Poco Nuvoloso 29 22 66 1015 10 E 13
Ieri h: 15:50 poco_nuvoloso Poco Nuvoloso 28 20 61 1016 10 E/NE 13
Ieri h: 15:20 poco_nuvoloso Poco Nuvoloso 28 20 61 1016 10 E/SE 13
Ieri h: 14:50 sereno Sereno 27 21 69 1016 10 E 16.7
Ieri h: 14:20 sereno Sereno 27 20 65 1016 10 E 14.8
Ieri h: 13:50 sereno Sereno 27 20 65 1016 10 NE 13
Ieri h: 13:20 sereno Sereno 26 20 69 1017 10 E/NE 13
Ieri h: 12:50 nuvoloso Nuvoloso 24 20 78 1017 10 E/NE 13
Ieri h: 12:20 nuvoloso Nuvoloso 25 20 73 1017 10 E 11.1
Ieri h: 11:50 nuvoloso Nuvoloso 24 19 73 1017 10 N 5.5
Ieri h: 11:20 poco_nuvoloso Poco Nuvoloso 24 19 73 1016 10 E/NE 9.3
Ieri h: 10:50 sereno Sereno 24 19 73 1016 10 NE 7.4
Ieri h: 10:20 sereno Sereno 23 19 78 1016 10 N 5.5
Ieri h: 09:50 poco_nuvoloso Poco Nuvoloso 23 19 78 1016 10 E 7.4
Ieri h: 09:20 nuvoloso Nuvoloso 23 20 83 1016 10 N 3.7
Ieri h: 08:50 coperto_pioggia Pioggia Debole 22 20 88 1016 10 N 5.5
Ieri h: 08:20 nuvoloso Nuvoloso 22 19 83 1016 10 N 3.7
Ieri h: 07:50 nuvoloso Nuvoloso 22 19 83 1015 10 N 5.5
Ieri h: 07:20 sereno Sereno 22 19 83 1015 10 N 5.5
Ieri h: 06:20 molto_nuvoloso Molto Nuvoloso 21 19 88 1015 10 N 5.5
Ieri h: 05:50 molto_nuvoloso Molto Nuvoloso 21 19 88 1015 10 N 1.8